Location: Dittelspoint
(48.7198°N, 10.7214°E)
Time: 09:26:44
(UTC+00:00)

Cosmos 2369 Rocket - Pass Details

Date: 09 April 2020
Orbit: 829 x 852 km, 71.0° (Epoch: 24 May)

Event Time Altitude Azimuth Distance (km) Brightness Sun altitude
Rises 18:42:58 0° 324° (NW) 3,422 6.4 -7.5°
Reaches altitude 10° 18:45:42 10° 314° (NW) 2,479 5.9 -8.0°
Maximum altitude 18:50:30 29° 256° (WSW) 1,505 4.2 -8.7°
Drops below altitude 10° 18:55:16 10° 198° (SSW) 2,451 4.6 -9.4°
Sets 18:57:58 0° 187° (S) 3,376 5.2 -9.8°
